Theta_e
310 314 318 324 327 329 333 333 332 332 336 335 336 337 338 350 359 370 346 349 351 356 355 348 345 344 345 349 350 346 341 339 333 332 332 333 333 334 341 344 340 339 343 345 345 342 338 334 329
320 319 322 326 330 332 334 333 333 333 335 335 334 334 335 358 356 353 353 352 352 356 354 351 346 343 343 347 350 347 343 340 333 332 333 335 334 335 344 349 344 341 345 350 345 342 339 332 327
316 323 323 326 330 333 334 333 334 334 335 334 334 334 336 360 354 356 354 355 356 357 355 353 345 342 341 343 349 349 345 340 333 333 333 335 333 335 347 350 347 344 340 342 344 342 337 328 328
316 322 322 324 328 330 331 333 334 335 335 334 334 334 337 343 357 360 353 358 357 357 356 352 344 341 340 343 349 348 345 338 334 336 335 335 332 331 341 343 345 346 343 338 333 331 331 328 329
318 319 319 320 323 327 329 331 332 333 336 335 334 334 339 345 354 360 354 358 358 356 358 351 343 340 341 345 349 347 344 338 337 338 337 337 331 329 336 339 342 341 339 336 333 331 330 328 331
319 317 316 318 320 322 326 329 331 332 334 335 334 333 340 345 355 356 353 357 357 355 358 349 342 341 342 346 348 346 344 342 340 341 340 338 329 330 338 339 336 335 338 334 336 333 332 329 331
320 317 316 317 319 321 323 325 327 330 333 335 335 333 336 345 353 355 353 356 355 356 357 352 347 343 345 348 347 345 345 344 343 344 342 338 328 335 337 333 331 332 335 336 335 332 332 332 338
323 320 317 317 318 319 322 324 325 326 329 334 335 334 334 348 350 355 354 355 354 357 355 351 351 346 346 347 346 345 345 345 345 344 342 336 330 336 336 334 332 334 334 337 335 334 335 337 338
324 322 322 319 318 319 321 322 325 326 326 331 333 334 342 348 348 355 354 355 355 356 353 349 348 347 348 350 345 344 343 343 344 343 339 333 334 337 340 336 340 329 332 334 336 335 334 335 336
326 326 322 321 321 321 321 322 322 323 323 324 328 329 336 346 345 351 355 355 355 355 353 349 346 344 343 344 344 341 343 341 340 340 337 336 341 343 344 342 340 341 330 331 332 332 333 334 335
326 327 324 323 324 324 323 322 323 322 321 322 323 324 329 341 345 346 351 354 354 354 353 349 347 344 342 343 343 343 343 343 341 342 342 340 339 343 339 342 339 339 338 335 334 329 328 332 335
323 324 325 323 324 325 325 325 323 322 321 322 322 323 325 332 335 342 346 351 354 354 354 350 348 345 343 348 343 345 345 344 343 343 343 337 340 342 340 341 342 344 343 340 343 342 340 337 334
320 320 323 324 323 322 323 324 324 323 322 322 322 323 323 328 332 339 343 346 356 355 354 352 350 347 347 348 346 345 347 346 346 346 344 342 342 346 344 343 344 345 342 344 343 343 343 339 338
322 321 321 323 323 322 322 322 323 322 323 322 321 322 323 323 330 335 341 345 348 356 358 354 352 348 348 353 348 346 348 347 348 349 348 347 346 349 347 346 345 343 344 342 345 343 342 342 341
321 323 322 323 323 323 323 322 322 322 322 323 322 322 322 323 324 328 333 342 347 354 349 335 355 351 349 352 350 346 349 350 349 350 351 350 347 351 349 349 347 346 345 343 343 342 342 341 341
322 322 324 322 323 323 323 323 322 322 322 322 323 322 322 322 323 323 325 336 344 356 351 347 358 358 353 356 356 351 353 350 351 349 351 351 350 348 352 349 348 348 346 345 344 344 343 342 341
321 323 324 323 322 323 322 324 322 322 323 323 324 323 322 322 323 323 324 329 346 353 361 359 360 360 358 355 357 354 353 351 352 350 350 351 351 350 349 351 348 347 347 346 345 346 347 345 345
321 321 321 322 322 322 322 322 322 322 322 323 324 323 323 324 324 323 325 324 348 353 361 361 360 360 359 358 358 357 356 355 354 351 351 351 352 350 348 348 350 349 349 348 348 346 345 345 345
321 320 320 321 323 322 324 323 322 323 323 322 324 323 324 325 324 323 323 324 350 357 362 362 359 358 360 358 360 358 356 355 353 354 354 355 353 352 351 349 348 348 349 349 347 344 343 343 338
322 321 322 322 323 324 325 325 324 323 324 323 324 325 325 325 326 325 326 327 354 364 360 359 358 358 359 355 359 356 354 353 353 353 352 352 352 351 350 350 350 349 350 348 346 343 340 338 338
320 321 323 322 323 324 325 326 325 323 324 324 323 325 325 325 327 327 327 338 362 356 353 349 354 357 357 354 356 353 354 354 352 352 352 351 351 350 349 348 347 347 347 347 344 339 333 337 334
317 319 321 322 324 326 325 326 328 324 326 326 325 324 325 326 327 327 330 343 354 356 346 331 335 354 356 353 354 356 355 352 353 352 351 350 350 350 348 348 346 345 344 344 339 338 336 331 337
316 318 320 321 323 326 325 324 324 326 326 326 326 325 325 325 326 325 331 341 342 350 356 353 354 356 354 352 355 353 353 352 351 351 348 348 348 346 347 345 344 342 344 343 338 335 337 339 339
315 316 319 321 323 326 325 325 325 324 326 327 327 325 324 324 325 325 330 333 338 344 352 353 357 356 353 353 352 352 352 350 351 348 348 348 346 344 345 344 343 341 340 340 340 340 340 341 339
318 316 320 324 324 324 324 325 325 326 326 327 327 326 325 325 326 326 328 330 333 340 352 355 353 352 350 349 351 352 351 347 347 347 346 346 345 343 344 341 341 341 341 339 340 339 338 338 336
318 318 320 328 328 322 323 326 325 326 326 327 327 327 326 326 325 326 325 329 329 336 353 350 349 348 348 347 350 351 349 348 347 347 346 345 343 342 340 339 338 336 335 335 334 334 333 333 332
315 318 318 322 324 323 324 323 322 324 327 328 327 327 326 326 325 327 326 329 343 353 350 349 347 347 349 347 346 347 347 346 343 342 341 338 336 336 334 334 333 332 331 330 329 330 328 329 329
317 317 323 325 327 325 324 324 323 325 327 329 338 332 328 326 326 327 340 350 348 346 346 346 345 343 343 342 340 339 338 337 336 334 333 332 331 331 330 329 329 328 327 327 326 326 325 324 323
319 317 320 324 325 330 326 325 325 327 329 337 341 341 344 344 345 346 345 343 342 341 342 340 340 339 340 337 335 334 332 330 329 328 327 325 324 323 322 321 321 321 321 320 320 320 320 319 318
318 320 323 324 326 327 328 334 340 331 337 341 337 338 341 342 342 342 341 340 340 339 339 339 335 333 331 329 326 325 324 322 321 320 319 319 318 317 316 317 316 316 315 315 315 315 315 316 317
Wind_Speed
14 13 11 14 7 8 17 20 22 24 4 3 9 8 13 13 14 5 3 12 33 31 29 29 24 21 20 20 20 19 19 17 17 17 15 14 15 16 15 14 14 12 12 11 10 8 7 6 6
11 13 17 7 11 14 16 22 24 21 5 8 7 8 11 18 19 20 25 30 32 31 30 26 25 22 21 21 20 20 19 17 17 16 14 14 15 15 16 13 12 10 10 10 9 7 5 5 6
13 18 8 7 15 18 19 23 20 22 15 9 5 0 9 14 18 15 23 32 32 27 28 26 26 23 21 21 22 21 20 19 18 16 14 14 15 15 15 12 10 9 9 9 8 7 5 5 7
9 9 7 15 23 27 29 24 28 17 11 12 6 6 5 11 6 15 24 29 30 26 24 26 27 24 21 20 22 22 21 19 20 17 16 16 16 17 16 12 9 8 7 7 7 6 7 8 8
21 8 11 18 27 29 25 29 29 26 10 11 10 10 7 14 15 17 22 28 27 25 25 26 26 24 21 21 23 23 21 19 18 16 15 15 16 17 15 12 10 8 7 7 7 8 8 9 10
10 13 15 19 24 28 28 28 27 25 23 12 13 11 2 17 18 18 21 25 24 25 23 26 25 23 21 22 23 22 20 19 18 16 14 14 15 16 13 11 9 9 9 8 7 8 8 10 11
19 15 20 24 23 26 26 26 28 25 20 14 11 12 11 17 22 21 22 23 24 27 24 24 24 23 22 23 22 21 19 18 17 16 15 15 16 15 13 11 10 9 10 9 9 9 9 10 11
15 16 26 24 21 26 22 26 25 27 27 10 13 8 9 17 21 23 23 25 26 27 25 26 23 23 23 22 21 21 19 18 16 15 15 15 15 14 12 10 9 9 10 9 9 9 10 11 11
23 17 20 30 28 22 22 24 21 24 26 17 18 13 13 16 16 20 22 25 26 27 28 26 26 24 22 20 22 20 18 17 16 16 15 15 14 14 11 9 8 9 10 10 10 10 11 12 13
22 19 33 25 24 24 23 22 23 14 15 14 16 14 11 18 14 17 17 20 28 29 29 30 30 28 27 22 22 20 18 17 16 15 16 15 13 12 12 10 11 10 10 11 12 12 13 14 14
27 30 23 27 27 26 25 23 25 18 15 14 15 18 15 15 12 14 21 25 28 30 31 34 35 32 31 28 24 21 18 17 16 14 14 16 14 16 12 15 14 14 14 12 12 14 16 15 14
28 32 29 28 25 22 24 22 21 13 13 20 18 18 19 17 15 15 17 23 25 33 34 38 38 34 32 33 28 25 22 21 18 17 17 16 17 15 13 16 16 14 14 14 17 15 16 14 14
34 30 29 29 27 28 24 24 21 19 16 15 13 19 20 15 16 19 20 22 28 29 37 41 38 33 30 33 29 27 24 24 20 20 20 15 15 14 13 14 14 19 12 20 16 21 20 22 19
27 29 29 28 28 25 23 24 16 21 19 15 18 14 15 13 13 14 18 19 22 25 11 40 41 36 29 22 29 28 25 25 22 24 25 19 18 16 14 13 11 14 11 12 13 12 12 13 15
30 28 27 29 29 29 22 24 29 18 20 21 18 16 16 10 12 12 14 19 16 26 26 20 20 33 30 20 26 25 21 23 21 18 23 22 20 15 15 14 15 14 13 13 14 15 14 13 15
25 29 27 28 30 26 23 32 24 22 19 20 18 16 16 15 17 17 22 22 24 29 40 58 40 30 29 20 18 23 15 18 20 17 19 23 20 18 11 15 14 14 12 7 9 13 16 18 18
27 23 35 28 26 25 27 36 22 20 24 20 17 16 16 15 16 24 24 20 26 16 29 34 32 30 28 25 18 20 15 19 13 16 15 21 20 17 17 11 13 14 11 11 11 14 14 12 12
28 31 23 29 28 26 28 25 24 22 22 24 19 20 18 19 22 21 20 23 25 20 30 32 30 28 26 21 17 17 13 15 9 11 11 17 16 15 17 20 16 13 9 13 11 10 11 10 13
27 26 31 25 21 27 25 24 22 23 18 16 20 22 20 21 19 25 25 24 26 23 26 25 26 20 27 19 16 15 11 13 15 9 8 10 9 10 12 16 17 14 14 14 15 14 13 12 10
30 29 28 24 25 24 25 26 22 22 23 16 19 19 20 20 16 14 18 22 25 23 26 19 22 21 21 25 16 17 15 15 12 10 9 12 14 12 12 13 13 13 13 14 13 11 8 8 8
29 28 27 27 24 26 24 25 26 24 19 21 17 16 18 20 20 17 16 19 26 27 30 18 15 19 23 28 21 17 15 14 13 14 13 12 9 8 10 10 12 13 15 14 12 10 7 6 7
27 30 29 26 24 16 25 16 18 19 21 22 21 19 17 18 20 17 17 14 17 28 36 29 37 31 26 26 23 20 16 14 15 16 14 9 7 5 6 8 9 10 11 10 8 8 9 10 18
27 26 27 29 23 21 19 14 17 20 23 25 23 19 18 18 18 17 20 17 19 19 23 40 31 30 25 27 20 23 18 18 18 19 14 11 7 7 6 4 7 9 9 9 8 8 11 14 16
26 26 22 25 18 16 21 18 18 17 25 21 21 22 18 18 16 16 22 26 21 22 24 27 26 24 25 25 26 22 19 17 22 23 15 13 8 6 5 4 3 5 7 8 8 8 10 12 14
17 22 13 13 15 14 22 20 14 23 25 24 23 23 22 17 18 15 17 19 21 22 29 28 27 25 26 26 21 19 13 14 16 16 17 13 10 7 5 5 4 2 1 3 4 6 8 9 11
22 22 16 12 15 19 24 25 18 21 10 21 23 22 20 19 15 18 19 19 22 24 34 29 24 23 23 21 15 12 13 13 14 11 16 15 12 7 5 5 5 5 5 3 3 4 8 8 9
26 21 23 18 19 17 20 21 18 17 5 7 18 22 22 19 17 16 15 17 23 31 28 26 23 20 16 16 14 12 9 15 18 15 15 13 9 8 6 5 5 3 4 5 6 5 9 11 12
24 21 19 14 17 19 20 24 16 22 14 10 15 14 17 17 16 14 14 22 29 28 27 26 26 25 24 21 21 23 23 22 18 18 18 15 12 11 8 6 5 4 4 4 6 7 10 15 17
19 14 20 18 9 9 15 17 22 23 19 17 17 16 15 18 20 21 20 25 31 28 26 26 27 28 20 21 23 22 23 21 20 19 16 14 12 9 8 6 6 7 7 8 8 12 13 12 17
24 17 24 13 19 12 10 7 21 19 22 24 18 15 16 18 18 18 18 23 26 27 27 27 27 26 24 24 23 22 20 19 18 17 14 13 11 9 8 9 9 9 11 12 12 14 16 16 16
Wind_Direction
256 257 253 262 248 231 250 251 248 267 250 11 22 353 331 23 131 205 338 215 136 147 160 158 161 161 164 168 168 167 165 163 160 158 158 153 150 147 142 140 142 141 142 142 144 140 130 123 123
248 243 237 263 236 245 246 243 256 253 230 114 54 312 281 84 100 151 171 143 134 150 163 161 165 164 167 169 170 170 167 165 162 161 159 155 155 154 147 146 146 142 140 137 147 145 138 132 132
248 248 235 221 235 239 247 250 231 260 115 121 161 262 308 80 119 109 136 131 133 149 155 169 167 167 170 169 170 173 172 169 166 166 164 161 163 162 155 153 151 145 144 146 151 156 155 152 144
225 229 238 247 233 231 244 257 268 269 177 147 198 229 127 90 69 109 138 133 133 147 156 172 167 168 170 170 171 173 174 173 172 171 168 168 169 169 170 168 167 162 159 159 165 169 164 157 152
233 229 225 232 240 246 238 241 262 273 289 161 195 232 135 101 111 123 144 137 143 154 161 166 168 168 171 170 171 173 175 176 176 173 173 172 173 173 176 177 180 177 174 172 174 173 171 169 170
217 231 235 233 238 237 245 255 253 247 263 219 188 202 189 131 129 139 154 147 150 153 152 165 169 170 171 170 172 176 179 181 180 178 178 178 176 176 178 183 188 188 184 179 182 182 183 183 186
236 222 234 244 243 236 240 236 255 265 265 198 220 175 213 161 136 145 156 150 150 148 143 157 163 170 169 171 175 179 183 183 183 182 182 182 180 181 185 190 193 190 190 188 190 190 195 196 203
226 248 248 238 244 248 250 232 235 246 259 241 243 193 223 122 140 146 161 159 158 149 149 157 162 166 170 173 180 182 184 185 186 185 185 184 184 188 192 195 199 196 198 202 204 203 203 211 220
231 239 241 242 240 241 254 261 242 226 238 221 240 249 124 127 149 146 164 166 163 157 152 162 164 168 165 168 178 181 184 186 186 187 188 186 185 196 205 204 215 213 209 215 220 221 221 225 236
227 228 235 242 249 255 254 250 258 243 234 256 227 240 190 141 168 161 173 178 168 160 159 166 167 169 170 169 178 176 178 183 183 187 190 184 183 208 200 212 215 227 225 222 227 231 235 240 243
228 236 238 239 254 262 262 253 254 239 220 234 241 240 215 159 176 187 185 190 178 170 166 168 167 172 173 167 170 166 176 179 178 185 201 179 197 207 207 212 221 228 234 233 238 239 239 243 252
230 235 240 254 257 247 260 271 271 216 218 235 221 235 232 178 193 211 200 203 189 176 172 165 165 174 177 161 166 170 173 178 180 189 201 192 206 210 202 214 217 217 216 233 228 239 245 238 236
228 236 239 242 253 266 275 271 254 270 215 220 245 212 234 190 187 205 226 211 191 188 173 158 162 174 186 163 162 173 176 177 185 190 197 200 215 217 206 230 227 208 206 228 219 232 243 231 238
235 232 241 240 237 245 250 263 232 246 264 230 230 250 223 225 172 221 218 230 219 178 100 154 154 169 190 169 165 177 177 177 190 189 193 196 211 227 207 224 246 258 255 242 225 232 252 260 262
242 245 239 233 236 241 254 255 242 229 238 244 220 232 235 197 202 217 240 242 237 168 158 118 173 170 186 184 170 174 181 177 184 201 195 191 198 233 213 219 221 233 242 259 268 288 295 292 279
243 235 243 229 226 235 229 249 235 238 233 233 227 226 219 227 224 230 224 228 239 161 164 182 161 168 178 183 171 170 177 191 189 194 190 189 197 211 231 232 265 246 237 251 266 263 262 263 264
231 231 226 234 229 220 220 241 237 237 219 230 217 214 221 223 230 226 222 223 220 218 158 149 155 165 176 187 179 172 186 186 195 201 208 193 196 203 223 233 250 275 247 245 246 256 262 259 284
218 223 231 223 226 225 225 237 237 235 246 211 220 206 223 221 222 229 228 213 201 215 163 154 161 168 173 181 184 185 189 189 185 184 188 184 185 207 227 230 253 269 269 248 266 286 273 282 286
234 233 223 237 221 221 226 225 227 232 230 217 211 213 211 233 211 208 223 213 185 189 155 152 158 173 165 167 175 178 199 194 213 169 169 170 183 207 224 237 244 268 261 256 256 278 280 288 299
239 244 245 231 219 235 220 230 217 221 235 223 207 210 217 222 222 213 202 215 186 144 142 162 165 175 164 178 171 173 191 199 204 196 201 202 211 215 226 236 249 261 259 261 262 271 277 282 299
230 234 237 243 227 222 231 222 210 214 232 224 215 228 211 212 216 212 200 205 166 140 159 172 194 185 172 176 175 180 186 183 190 197 197 200 202 202 227 248 261 263 263 265 264 262 251 278 286
232 220 234 237 244 237 209 223 201 200 225 235 221 206 216 203 207 207 183 185 158 147 161 180 197 203 168 170 181 177 167 168 189 183 175 177 197 226 239 239 262 273 272 270 268 234 248 270 267
238 231 215 239 240 249 203 214 226 193 229 219 212 198 208 214 196 203 169 164 166 157 158 171 173 163 172 177 174 172 178 188 187 177 163 164 183 210 231 258 259 271 267 273 272 271 276 267 273
218 236 238 218 234 242 239 199 215 231 211 215 211 193 200 196 205 202 157 161 173 165 153 153 154 153 165 168 172 182 199 186 151 148 152 155 171 196 207 215 246 281 292 278 292 292 282 280 274
250 206 207 217 211 221 234 231 215 207 235 207 207 199 187 200 191 194 174 165 169 171 145 138 139 139 155 170 177 196 185 122 127 130 143 151 133 139 148 178 190 178 281 307 325 315 316 310 306
234 219 211 186 201 202 223 219 213 231 302 200 193 186 180 193 187 186 196 162 165 176 129 132 137 138 159 167 169 159 129 123 105 104 122 124 131 117 114 98 108 96 75 62 8 322 334 322 310
199 232 203 209 203 209 213 223 225 242 84 51 179 170 172 179 190 187 187 167 126 112 120 130 132 130 142 160 155 148 134 121 112 104 105 104 105 113 99 92 98 59 27 10 343 339 322 325 310
237 209 194 224 221 201 204 206 210 220 167 144 65 125 163 170 184 173 116 100 105 110 117 115 113 108 114 109 100 94 93 95 96 95 91 89 79 78 71 45 32 32 4 346 334 325 315 316 317
222 232 200 213 196 229 196 202 207 204 162 117 86 75 63 72 86 92 97 101 103 109 114 114 109 113 115 110 103 97 90 90 90 88 87 84 81 69 54 35 8 352 347 335 341 329 317 325 326
235 182 249 204 201 259 262 150 353 204 125 111 105 97 93 92 99 104 107 110 113 111 114 107 102 102 103 97 92 89 92 92 88 83 79 76 67 51 34 20 7 353 351 345 340 330 321 323 336